Wetterstats.de || Aktuelle Messwerte / Archiv || Stationsstandorte || Wetterblog || Wissenswertes


Monatsübersicht für Februar 2019 Diagramm
 
Wetter Information zur Wetteranzeige
Zeitraffer
Tageslänge (hh:mm)
Höchsttemperatur in °C
Uhrzeit
Tiefsttemperatur in °C
Uhrzeit
Luftfeuchte (max., in %)
Uhrzeit
Luftfeuchte (min., in %)
Uhrzeit
Luftdruck (max., in hPa)
Uhrzeit
Luftdruck (min., in hPa)
Uhrzeit
Luftdruck (Ø, in hPa)
Regenrate (max, mm/h)
Uhrzeit
Niederschlag in mm
Niederschlagsdauer (hh:mm)
Verdunstung in mm
Solar in W/m² (Ø)
Solar in W/m² (max.)
UV-Index (max.)
Sonnenscheindauer (hh:mm)
Windrichtung (Ø)
Windstärke (Ø in km/h)
Windstärke (Ø in bft)
Windböe (max., in km/h)
Uhrzeit
Windböe (max., in bft)
Uhrzeit
Taupunkt (max., in °C)
Uhrzeit
Taupunkt (min., in °C)
Uhrzeit
Windchill (min., in °C)
Uhrzeit
Gewitterindex (max.)
Uhrzeit
Waldbrandindex (max.)
Uhrzeit
Graslandfeuerindex (max.)
Uhrzeit
Staubsturm-Index (max.)
Uhrzeit
01
Zeitraffer
1.8
16:30 Uhr
-2.4
07:00 Uhr

87
07:10 Uhr
79
14:50 Uhr
999.5
00:05 Uhr

994.4
19:35 Uhr
996.3
0,000
00:00 Uhr
0,000
00:00:00
0.000
0
0
00:00 Uhr
0.0
00:00 Uhr

00:00:00
2,8
1
22,0
09:00 Uhr

4
-1.2
22:15 Uhr
-4.4
06:40 Uhr
-4.6
07:10 Uhr
0
00:00 Uhr
0.0
00:00 Uhr
0.0
00:00 Uhr
0.0
00:00 Uhr
02
Zeitraffer
2.0
14:05 Uhr
0.8
05:10 Uhr

93
16:55 Uhr
84
00:00 Uhr
1004.4
23:50 Uhr

993.2
06:15 Uhr
996.6
3,600
02:35 Uhr
0,300
00:00:00
0.000
0
0
00:00 Uhr
0.0
00:00 Uhr

00:00:00
1,0
0
15,5
01:35 Uhr

3
0.8
14:00 Uhr
-1.2
00:00 Uhr
-0.3
01:35 Uhr
0
00:00 Uhr
0.0
00:00 Uhr
0.0
00:00 Uhr
0.0
00:00 Uhr
03
Zeitraffer
3.2
13:40 Uhr
1.9
00:00 Uhr

93
09:00 Uhr
88
22:30 Uhr
1021.5
23:45 Uhr

1004.4
00:00 Uhr
1012.6
0,000
00:00 Uhr
0,000
00:00:00
0.000
0
0
00:00 Uhr
0.0
00:00 Uhr

00:00:00
0,6
0
13,3
16:10 Uhr

3
2.0
13:00 Uhr
0.3
23:45 Uhr
1.9
00:00 Uhr
0
00:00 Uhr
0.0
00:00 Uhr
0.0
00:00 Uhr
0.0
00:00 Uhr
04
Zeitraffer
5.2
12:05 Uhr
0.3
07:55 Uhr

91
05:55 Uhr
77
15:10 Uhr
1027.4
10:20 Uhr

1021.6
00:00 Uhr
1025.7
0,000
00:00 Uhr
0,000
00:00:00
0.000
0
0
00:00 Uhr
0.0
00:00 Uhr

00:00:00
0,8
0
15,5
17:35 Uhr

3
2.6
12:00 Uhr
-1.1
07:55 Uhr
0.3
07:55 Uhr
0
00:00 Uhr
0.0
00:00 Uhr
0.0
00:00 Uhr
0.0
00:00 Uhr
05
Zeitraffer
4.4
14:05 Uhr
1.9
02:15 Uhr

84
06:20 Uhr
80
04:00 Uhr
1027.0
22:40 Uhr

1023.3
06:25 Uhr
1025.0
0,000
00:00 Uhr
0,000
00:00:00
0.000
0
0
00:00 Uhr
0.0
00:00 Uhr

00:00:00
0,6
0
15,5
01:10 Uhr

3
1.8
16:35 Uhr
-1.0
02:20 Uhr
1.4
02:00 Uhr
0
00:00 Uhr
0.0
00:00 Uhr
0.0
00:00 Uhr
0.0
00:00 Uhr
06
Zeitraffer
6.8
13:45 Uhr
3.2
07:30 Uhr

81
00:00 Uhr
70
15:30 Uhr
1027.3
02:15 Uhr

1018.4
23:40 Uhr
1023.7
0,000
00:00 Uhr
0,000
00:00:00
0.000
0
0
00:00 Uhr
0.0
00:00 Uhr

00:00:00
1,3
0
19,8
13:30 Uhr

3
2.0
13:30 Uhr
0.1
07:10 Uhr
3.2
07:30 Uhr
0
00:00 Uhr
0.0
00:00 Uhr
0.0
00:00 Uhr
0.0
00:00 Uhr
07
Zeitraffer
6.1
14:50 Uhr
2.6
07:25 Uhr

79
23:55 Uhr
58
13:55 Uhr
1018.7
00:00 Uhr

1008.6
16:30 Uhr
1012.2
0,000
00:00 Uhr
0,000
00:00:00
0.000
0
0
00:00 Uhr
0.0
00:00 Uhr

00:00:00
1,7
0
19,8
10:55 Uhr

3
0.9
23:10 Uhr
-2.4
08:15 Uhr
2.2
08:00 Uhr
0
00:00 Uhr
0.0
00:00 Uhr
0.0
00:00 Uhr
0.0
00:00 Uhr
08
Zeitraffer
8.5
14:55 Uhr
3.5
07:00 Uhr

83
08:15 Uhr
72
13:30 Uhr
1014.5
09:55 Uhr

1007.8
23:55 Uhr
1012.3
0,000
00:00 Uhr
0,000
00:00:00
0.000
0
0
00:00 Uhr
0.0
00:00 Uhr

00:00:00
1,5
0
19,8
23:35 Uhr

3
3.8
11:40 Uhr
0.5
05:05 Uhr
3.5
07:00 Uhr
0
00:00 Uhr
0.0
00:00 Uhr
0.0
00:00 Uhr
0.0
00:00 Uhr
09
Zeitraffer
10.5
12:35 Uhr
6.2
03:05 Uhr

81
10:00 Uhr
61
16:25 Uhr
1007.8
00:00 Uhr

1001.6
06:25 Uhr
1003.9
3,600
09:20 Uhr
0,300
00:00:00
0.000
0
0
00:00 Uhr
0.0
00:00 Uhr

00:00:00
2,4
1
22,0
01:05 Uhr

4
5.7
11:45 Uhr
0.7
04:45 Uhr
3.2
03:05 Uhr
0
00:00 Uhr
0.0
00:00 Uhr
0.0
00:00 Uhr
0.0
00:00 Uhr
10
Zeitraffer
8.2
00:15 Uhr
6.0
11:05 Uhr

93
15:35 Uhr
69
00:00 Uhr
1007.3
01:35 Uhr

988.7
19:00 Uhr
997.4
6,000
12:35 Uhr
2,600
00:00:00
0.000
0
0
00:00 Uhr
0.0
00:00 Uhr

00:00:00
2,7
1
24,1
11:10 Uhr

4
6.5
20:35 Uhr
2.1
05:25 Uhr
4.6
11:15 Uhr
0
00:00 Uhr
0.0
00:00 Uhr
0.0
00:00 Uhr
0.0
00:00 Uhr
11
Zeitraffer
7.3
00:00 Uhr
3.9
23:30 Uhr

92
00:00 Uhr
69
16:55 Uhr
1019.0
23:55 Uhr

989.7
00:20 Uhr
1004.7
3,600
02:55 Uhr
2,100
00:00:00
0.000
0
0
00:00 Uhr
0.0
00:00 Uhr

00:00:00
1,4
0
17,6
16:10 Uhr

3
6.1
00:00 Uhr
0.6
19:55 Uhr
3.9
04:50 Uhr
0
00:00 Uhr
0.0
00:00 Uhr
0.0
00:00 Uhr
0.0
00:00 Uhr
12
Zeitraffer
6.4
13:15 Uhr
3.1
06:10 Uhr

84
07:10 Uhr
67
14:40 Uhr
1030.5
23:25 Uhr

1019.0
00:00 Uhr
1025.7
0,000
00:00 Uhr
0,000
00:00:00
0.000
0
0
00:00 Uhr
0.0
00:00 Uhr

00:00:00
0,8
0
13,3
12:00 Uhr

3
1.8
10:25 Uhr
-0.6
20:00 Uhr
3.1
05:55 Uhr
0
00:00 Uhr
0.0
00:00 Uhr
0.0
00:00 Uhr
0.0
00:00 Uhr
13
Zeitraffer
7.9
14:35 Uhr
4.4
00:00 Uhr

91
19:10 Uhr
77
00:00 Uhr
1033.0
23:25 Uhr

1028.6
04:05 Uhr
1030.5
0,000
00:00 Uhr
0,000
00:00:00
0.000
0
0
00:00 Uhr
0.0
00:00 Uhr

00:00:00
0,4
0
8,6
12:40 Uhr

2
6.3
19:10 Uhr
0.7
00:00 Uhr
4.4
00:00 Uhr
0
00:00 Uhr
0.0
00:00 Uhr
0.0
00:00 Uhr
0.0
00:00 Uhr
14
Zeitraffer
9.5
12:15 Uhr
5.5
23:55 Uhr

91
00:00 Uhr
75
14:55 Uhr
1035.2
08:50 Uhr

1033.0
00:15 Uhr
1033.9
0,000
00:00 Uhr
0,000
00:00:00
0.000
0
0
00:00 Uhr
0.0
00:00 Uhr

00:00:00
0,2
0
4,3
00:45 Uhr

1
6.4
12:00 Uhr
2.0
23:55 Uhr
5.5
23:55 Uhr
0
00:00 Uhr
0.0
00:00 Uhr
0.0
00:00 Uhr
0.0
00:00 Uhr
15
Zeitraffer
10.4
16:10 Uhr
2.5
06:25 Uhr

82
07:55 Uhr
55
16:30 Uhr
1034.2
10:40 Uhr

1029.3
23:50 Uhr
1032.4
0,000
00:00 Uhr
0,000
00:00:00
0.000
0
0
00:00 Uhr
0.0
00:00 Uhr

00:00:00
0,1
0
6,5
13:55 Uhr

1
4.0
11:45 Uhr
-0.6
06:25 Uhr
2.5
06:25 Uhr
0
00:00 Uhr
0.0
00:00 Uhr
0.0
00:00 Uhr
0.0
00:00 Uhr


 
Wetter Information zur Wetteranzeige
Zeitraffer
Tageslänge (hh:mm)
Höchsttemperatur in °C
Uhrzeit
Tiefsttemperatur in °C
Uhrzeit
Luftfeuchte (max., in %)
Uhrzeit
Luftfeuchte (min., in %)
Uhrzeit
Luftdruck (max., in hPa)
Uhrzeit
Luftdruck (min., in hPa)
Uhrzeit
Luftdruck (Ø, in hPa)
Regenrate (max, mm/h)
Uhrzeit
Niederschlag in mm
Niederschlagsdauer (hh:mm)
Verdunstung in mm
Solar in W/m² (Ø)
Solar in W/m² (max.)
UV-Index (max.)
Sonnenscheindauer (hh:mm)
Windrichtung (Ø)
Windstärke (Ø in km/h)
Windstärke (Ø in bft)
Windböe (max., in km/h)
Uhrzeit
Windböe (max., in bft)
Uhrzeit
Taupunkt (max., in °C)
Uhrzeit
Taupunkt (min., in °C)
Uhrzeit
Windchill (min., in °C)
Uhrzeit
Gewitterindex (max.)
Uhrzeit
Waldbrandindex (max.)
Uhrzeit
Graslandfeuerindex (max.)
Uhrzeit
Staubsturm-Index (max.)
Uhrzeit
16
Zeitraffer
12.2
15:35 Uhr
3.9
07:45 Uhr

73
07:25 Uhr
49
15:25 Uhr
1029.2
00:00 Uhr

1023.4
17:05 Uhr
1025.4
0,000
00:00 Uhr
0,000
00:00:00
0.000
0
0
00:00 Uhr
0.0
00:00 Uhr

00:00:00
0,3
0
6,5
02:15 Uhr

1
3.4
11:45 Uhr
-0.5
07:20 Uhr
3.9
07:45 Uhr
0
00:00 Uhr
0.0
00:00 Uhr
0.0
00:00 Uhr
0.0
00:00 Uhr
17
Zeitraffer
11.4
15:35 Uhr
3.7
07:25 Uhr

73
08:10 Uhr
58
15:20 Uhr
1025.2
09:40 Uhr

1021.0
23:55 Uhr
1023.4
0,000
00:00 Uhr
0,000
00:00:00
0.000
0
0
00:00 Uhr
0.0
00:00 Uhr

00:00:00
0,4
0
8,6
12:55 Uhr

2
3.9
11:55 Uhr
-1.1
07:25 Uhr
3.7
07:25 Uhr
0
00:00 Uhr
0.0
00:00 Uhr
0.0
00:00 Uhr
0.0
00:00 Uhr
18
Zeitraffer
12.0
15:00 Uhr
3.7
07:30 Uhr

76
08:15 Uhr
55
15:05 Uhr
1021.0
00:00 Uhr

1014.3
23:55 Uhr
1018.3
0,000
00:00 Uhr
0,000
00:00:00
0.000
0
0
00:00 Uhr
0.0
00:00 Uhr

00:00:00
0,3
0
8,6
14:35 Uhr

2
4.1
12:05 Uhr
-0.4
06:40 Uhr
3.7
07:30 Uhr
0
00:00 Uhr
0.0
00:00 Uhr
0.0
00:00 Uhr
0.0
00:00 Uhr
19
Zeitraffer
10.2
15:50 Uhr
6.5
07:00 Uhr

76
22:50 Uhr
64
00:00 Uhr
1016.4
23:40 Uhr

1012.5
05:55 Uhr
1014.1
0,000
00:00 Uhr
0,000
00:00:00
0.000
0
0
00:00 Uhr
0.0
00:00 Uhr

00:00:00
0,4
0
8,6
20:30 Uhr

2
4.7
13:50 Uhr
1.0
07:00 Uhr
6.5
07:00 Uhr
0
00:00 Uhr
0.0
00:00 Uhr
0.0
00:00 Uhr
0.0
00:00 Uhr
20
Zeitraffer
10.7
14:05 Uhr
6.9
04:15 Uhr

77
00:30 Uhr
67
17:45 Uhr
1022.8
23:45 Uhr

1016.4
00:00 Uhr
1019.8
0,000
00:00 Uhr
0,000
00:00:00
0.000
0
0
00:00 Uhr
0.0
00:00 Uhr

00:00:00
0,2
0
6,5
09:35 Uhr

1
5.1
12:25 Uhr
3.1
04:30 Uhr
6.9
04:15 Uhr
0
00:00 Uhr
0.0
00:00 Uhr
0.0
00:00 Uhr
0.0
00:00 Uhr
21
Zeitraffer
11.2
13:25 Uhr
8.0
07:10 Uhr

88
23:40 Uhr
69
00:00 Uhr
1023.4
23:45 Uhr

1021.2
14:45 Uhr
1022.3
3,600
06:50 Uhr
0,900
00:00:00
0.000
0
0
00:00 Uhr
0.0
00:00 Uhr

00:00:00
0,3
0
8,6
23:15 Uhr

2
7.7
23:45 Uhr
3.0
01:10 Uhr
8.0
07:10 Uhr
0
00:00 Uhr
0.0
00:00 Uhr
0.0
00:00 Uhr
0.0
00:00 Uhr
22
Zeitraffer
9.6
00:00 Uhr
0.6
23:50 Uhr

88
00:00 Uhr
50
14:40 Uhr
1044.8
23:45 Uhr

1023.4
00:00 Uhr
1035.8
3,600
00:00 Uhr
0,300
00:00:00
0.000
0
0
00:00 Uhr
0.0
00:00 Uhr

00:00:00
4,6
1
28,8
09:15 Uhr

4
7.7
00:00 Uhr
-7.1
23:30 Uhr
0.0
09:40 Uhr
0
00:00 Uhr
0.0
00:00 Uhr
0.0
00:00 Uhr
0.0
00:00 Uhr
23
Zeitraffer
5.0
14:50 Uhr
-1.4
07:40 Uhr

65
07:45 Uhr
37
15:00 Uhr
1045.2
00:40 Uhr

1040.2
23:40 Uhr
1042.9
0,000
00:00 Uhr
0,000
00:00:00
0.000
0
0
00:00 Uhr
0.0
00:00 Uhr

00:00:00
1,7
0
17,6
02:50 Uhr

3
-5.8
10:20 Uhr
-8.7
15:00 Uhr
-1.6
07:45 Uhr
0
00:00 Uhr
0.0
00:00 Uhr
0.0
00:00 Uhr
0.0
00:00 Uhr
24
Zeitraffer
8.1
16:50 Uhr
0.5
06:55 Uhr

63
07:35 Uhr
39
15:40 Uhr
1040.2
00:00 Uhr

1037.0
16:05 Uhr
1038.1
0,000
00:00 Uhr
0,000
00:00:00
0.000
0
0
00:00 Uhr
0.0
00:00 Uhr

00:00:00
0,1
0
6,5
12:55 Uhr

1
-2.2
11:30 Uhr
-6.2
00:00 Uhr
0.5
06:55 Uhr
0
00:00 Uhr
0.0
00:00 Uhr
0.0
00:00 Uhr
0.0
00:00 Uhr
25
Zeitraffer
11.1
16:20 Uhr
2.7
07:05 Uhr

64
13:30 Uhr
51
00:00 Uhr
1037.5
08:50 Uhr

1033.2
22:40 Uhr
1035.6
0,000
00:00 Uhr
0,000
00:00:00
0.000
0
0
00:00 Uhr
0.0
00:00 Uhr

00:00:00
0,2
0
6,5
12:30 Uhr

1
4.5
15:20 Uhr
-4.0
00:20 Uhr
2.7
07:05 Uhr
0
00:00 Uhr
0.0
00:00 Uhr
0.0
00:00 Uhr
0.0
00:00 Uhr
26
Zeitraffer
10.9
15:00 Uhr
5.4
07:20 Uhr

76
22:10 Uhr
62
00:00 Uhr
1033.4
00:00 Uhr

1031.1
14:30 Uhr
1031.9
0,000
00:00 Uhr
0,000
00:00:00
0.000
0
0
00:00 Uhr
0.0
00:00 Uhr

00:00:00
0,3
0
6,5
09:40 Uhr

1
5.6
17:25 Uhr
-0.4
03:40 Uhr
5.4
07:20 Uhr
0
00:00 Uhr
0.0
00:00 Uhr
0.0
00:00 Uhr
0.0
00:00 Uhr
27
Zeitraffer
13.0
14:50 Uhr
3.9
06:10 Uhr

79
02:20 Uhr
48
17:20 Uhr
1031.2
00:00 Uhr

1014.8
23:50 Uhr
1024.4
0,000
00:00 Uhr
0,000
00:00:00
0.000
0
0
00:00 Uhr
0.0
00:00 Uhr

00:00:00
0,1
0
8,6
14:10 Uhr

2
4.2
11:00 Uhr
-0.6
23:00 Uhr
3.9
06:10 Uhr
0
00:00 Uhr
0.0
00:00 Uhr
0.0
00:00 Uhr
0.0
00:00 Uhr
28
Zeitraffer
12.9
11:55 Uhr
7.6
06:45 Uhr

72
22:15 Uhr
49
00:00 Uhr
1014.7
00:00 Uhr

1009.2
06:40 Uhr
1010.6
0,000
00:00 Uhr
0,000
00:00:00
0.000
0
0
00:00 Uhr
0.0
00:00 Uhr

00:00:00
0,6
0
11,2
08:55 Uhr

2
5.4
16:45 Uhr
-0.5
00:05 Uhr
7.6
06:45 Uhr
0
00:00 Uhr
0.0
00:00 Uhr
0.0
00:00 Uhr
0.0
00:00 Uhr

Seiten-Historie || Downloads || Impressum / Datenschutz